Regional Weather Roundup
Issued by NWS

Home | Current Version | Previous Version | Graphics & Text | Print | Product List | Glossary On
Versions: 1 2 3 4 5 6 7 8 9 10 11 12 13 14 15 16 17 18 19 20 21 22 23 24 25 26 27 28 29 30 31 32 33 34 35 36 37 38 39 40 41 42 43 44 45 46 47 48 49 50
000
ASUS43 KIND 051809
RWRIN

WEATHER ROUNDUP FOR INDIANA
NATIONAL WEATHER SERVICE INDIANAPOLIS IN
200 PM EDT THU MAY 05 2016

NOTE: "FAIR" INDICATES FEW OR NO CLOUDS BELOW 12,000 FEET WITH NO
SIGNIFICANT WEATHER AND/OR OBSTRUCTIONS TO VISIBILITY.

* - STATION DOES NOT REPORT WEATHER SUCH AS PRECIPITATION OR FOG.

+ - STATION NOT QUALITY CONTROLLED BY THE NATIONAL WEATHER SERVICE.
    USE DATA WITH CAUTION...ESPECIALLY DEWPOINT AND RELATIVE
    HUMIDITY OBSERVATIONS.

INZ001>003-010>013-019-020-051900-
NORTHWEST INDIANA

CITY           SKY/WX    TMP DP  RH WIND       PRES   REMARKS
GARY /AIRPORT/ PTSUNNY   50  46  87 N12G23    30.03F
KNOX *+        MOSUNNY   54  41  62 NW14      29.96F
LA PORTE +     SUNNY     52  46  81 N17       29.98F
6HR MIN TEMP:  45; 6HR MAX TEMP:  53;

MICHIGAN CITY+ CLOUDY    45  43  93 NW10      30.01S
MONTICELLO +   SUNNY     58  44  59 N15       29.94F
6HR MIN TEMP:  43; 6HR MAX TEMP:  58;

RENSSELAER +   SUNNY     57  46  67 N13G18    29.97S
VALPARAISO     SUNNY     50  42  74 NW14G22   29.99S
6HR MIN TEMP:  41; 6HR MAX TEMP:  51;


$$

LMZ046-743>745-051900-
SOUTHERN LAKE MICHIGAN

STATION/POSITION TIME  TEMP    WIND        PRES    WAVE
                       AIR SEA DIR/SP/G            HT
                 (UTC) (F)     (DEG/KT/KT) (MB)    (FT)
BURNS HARBOR     1700   42     350/ 12/ 15 1017.3R
MICHIGAN CITY    1700   43     330/ 14/ 15   N/A

$$

INZ004-005-014>016-021>024-051900-
NORTH CENTRAL INDIANA

CITY           SKY/WX    TMP DP  RH WIND       PRES   REMARKS
ELKHART        SUNNY     63  50  63 NW10G17   29.93F
GOSHEN         SUNNY     62  48  60 N13G21    29.91F
6HR MIN TEMP:  46; 6HR MAX TEMP:  62;

LOGANSPORT +   MOSUNNY   57  50  77 N10G17    29.94S
PERU/GRISSOM   PTSUNNY   61  48  63 N9G17     29.90F
6HR MIN TEMP:  43; 6HR MAX TEMP:  60; 6HR PCP: TRACE;

ROCHESTER +    SUNNY     61  50  67 NW13      29.93S
SOUTH BEND     SUNNY     55  46  71 NW15      29.96F
6HR MIN TEMP:  44; 6HR MAX TEMP:  56;

WARSAW +       MOSUNNY   61  46  59 N10G16    29.91F

$$

INZ006>009-017-018-025>027-051900-
NORTHEAST INDIANA

CITY           SKY/WX    TMP DP  RH WIND       PRES   REMARKS
ANGOLA *+        N/A     61  45  55 N10       29.88F
AUBURN +       PTSUNNY   63  43  48 N10G16    29.89S
FORT WAYNE     PTSUNNY   62  44  51 N16G22    29.88F
6HR MIN TEMP:  44; 6HR MAX TEMP:  64;

HUNTINGTON +   PTSUNNY  N/A N/A N/A N12       29.89S

$$

INZ028-029-035-036-043>045-051>053-051900-
WEST CENTRAL INDIANA

CITY           SKY/WX    TMP DP  RH WIND       PRES   REMARKS
CRAWFORDSVL +  CLOUDY    50  45  83 N10       29.95S
6HR MIN TEMP:  42; 6HR MAX TEMP:  50;

GREENCASTLE +  CLOUDY    50  45  81 N12G17    29.95R
LAFAYETTE      MOSUNNY   57  47  69 N10G18    29.95F
6HR MIN TEMP:  43; 6HR MAX TEMP:  56;

TERRE HAUTE    PTSUNNY   56  45  66 NW12      29.95F
6HR MIN TEMP:  45; 6HR MAX TEMP:  56;


$$

INZ030>032-037>040-046>048-054>057-064-065-051900-
CENTRAL INDIANA

CITY           SKY/WX    TMP DP  RH WIND       PRES   REMARKS
ANDERSON       PTSUNNY   57  46  67 N12G23    29.90S
CP ATTERBURY + CLOUDY    52  45  76 NW10      29.92S
COLUMBUS       CLOUDY    50  48  93 N13       29.92S
FISHERS *+     PTSUNNY   55  48  76 N7        29.91
FRANKFORT +      N/A     55  40  57 N10G17    29.95S
6HR MIN TEMP:  44; 6HR MAX TEMP:  55;

GREENWOOD *+   PTSUNNY   54  46  76 N14G20    29.92
INDIANAPOLIS   PTSUNNY   53  44  71 NW16      29.92R
6HR MIN TEMP:  43; 6HR MAX TEMP:  53; 6HR PCP: TRACE;

-EAGLE CREEK   PTSUNNY   54  45  71 NW12      29.92S
6HR MIN TEMP:  43; 6HR MAX TEMP:  55;

KOKOMO *+      PTSUNNY   61  46  59 N12G20    29.91S
6HR MIN TEMP:  43; 6HR MAX TEMP:  61;

MARION +       PTSUNNY   58  46  64 N10G18    29.90F
SHELBYVILLE    CLOUDY    56  47  71 NW14      29.89F
6HR MIN TEMP:  44; 6HR MAX TEMP:  56;

ZIONSVILLE +   PTSUNNY   54  48  80 N12       29.93S
6HR MIN TEMP:  41; 6HR MAX TEMP:  54;


$$

INZ033-034-041-042-049-050-058-059-051900-
EAST CENTRAL INDIANA

CITY           SKY/WX    TMP DP  RH WIND       PRES   REMARKS
MUNCIE         PTSUNNY   61  46  57 N13G20    29.88S
6HR MIN TEMP:  43; 6HR MAX TEMP:  61;


$$

INZ060-061-067>069-081>083-085>088-051900-
SOUTHWEST INDIANA

CITY           SKY/WX    TMP DP  RH WIND       PRES   REMARKS
EVANSVILLE     CLOUDY    56  41  57 N12       29.95S
6HR MIN TEMP:  46; 6HR MAX TEMP:  57;

HUNTINGBURG *+ CLOUDY    55  43  62 NW12G18   29.93S
6HR MIN TEMP:  45; 6HR MAX TEMP:  55;

WASHINGTON +   PTSUNNY   55  46  71 N13       29.94S
6HR MIN TEMP:  45; 6HR MAX TEMP:  56;


$$

INZ062-063-066-070>080-084-089>092-051900-
SOUTH CENTRAL AND SOUTHEAST INDIANA

CITY           SKY/WX    TMP DP  RH WIND       PRES   REMARKS
BEDFORD +      CLOUDY    52  50  93 N8        29.91S
BLOOMINGTON    CLOUDY    52  44  74 N8        29.92F
6HR MIN TEMP:  43; 6HR MAX TEMP:  53; 6HR PCP:  0.01;

MADISON *+     CLOUDY    50  41  71 N8        29.91R
NORTH VERNON + CLOUDY    48  48 100 N3        29.91R
SEYMOUR +      CLOUDY    52  43  71 N10G17    29.91R

$$




USA.gov is the U.S. government's official web portal to all federal, state and local government web resources and services.